Location: Dötzum
(52.0808°N, 9.8063°E)
Time: 05:14:12
(UTC+00:00)

Cosmos 2150 Rocket - Pass Details

Date: 27 May 2022
Orbit: 749 x 807 km, 74.0° (Epoch: 24 June)

Event Time Altitude Azimuth Distance (km) Brightness Sun altitude
Exits shadow 00:32:34 22° 217° (SW) 1,625 5.1 -14.9°
Maximum altitude 00:35:58 70° 297° (WNW) 802 4.1 -14.7°
Drops below altitude 10° 00:41:08 10° 22° (NNE) 2,282 7.9 -14.4°
Sets 00:43:31 0° 25° (NNE) 3,210 9.2 -14.3°
